Location: Dillon
(41.1766°N, 107.0923°W)
Time: 17:06:15
(UTC+00:00)

DIWATA 2B (PO-101) - Pass Details

Date: 04 July 2022
Orbit: 583 x 599 km, 98.0° (Epoch: 18 August)

Event Time Altitude Azimuth Distance (km) Brightness Sun altitude
Exits shadow 08:30:22 27° 113° (ESE) 1,157 ? -23.5°
Maximum altitude 08:31:53 36° 71° (ENE) 951 ? -23.4°
Drops below altitude 10° 08:35:46 10° 4° (N) 1,948 ? -23.1°
Sets 08:38:03 0° 356° (N) 2,855 ? -23.0°
